Location: Keppel Henge
(44.7900°N, 80.9447°W)
Time: 22:18:19
(UTC-04:00)

Envisat - Pass Details

Date: 14 October 2017
Orbit: 764 x 766 km, 98.2° (Epoch: 23 October)

Event Time Altitude Azimuth Distance (km) Brightness Sun altitude
Exits shadow 20:20:00 33° 81° (E) 1,266 3.6 -18.4°
Maximum altitude 20:20:36 34° 67° (ENE) 1,242 3.6 -18.6°
Drops below altitude 10° 20:25:09 10° 4° (N) 2,312 5.5 -19.4°
Sets 20:27:37 0° 355° (N) 3,242 6.4 -19.8°
